Zurück zum Katalog

DELTA 4H DEB

AktivUNKNOWN
NORAD 32573·DEBRIS·🇺🇸 United States

Gestartet Nov 11, 2007 von Cape Canaveral Space Force Station

Loading…

Nächste Überflüge (nächste 24 Stunden)

TLE

AktuellSource: Space-Track

Epoche: Sep 14, 2026, 00:51 UTC

1 32573U 07054AE  26257.03601572  .00006922  00000-0  98765-2 0  9998
2 32573  27.9266 164.3811 2030955 184.9745 172.7163 10.46465278279165

Verfolge DELTA 4H DEB in Echtzeit mit AllMySat

Download on the App Store